Location: Caltech
(34.1382°N, 118.1253°W)
Time: 05:06:47
(UTC-07:00)

HO-68 - Visible Passes

Search period start: 21 August 2017 00:00
Search period end: 31 August 2017 00:00
Orbit: 1192 x 1205 km, 100.1° (Epoch: 21 August)

Date Brightness Start Highest point End Pass type
(mag) Time Alt. Az. Time Alt. Az. Time Alt. Az.
21 Aug ? 20:56:00 10° SW 21:00:48 19° W 21:05:39 10° NW visible
22 Aug ? 20:37:56 10° SSW 20:43:43 26° W 20:49:32 10° NW visible
23 Aug ? 20:20:15 10° SSW 20:26:40 36° W 20:33:08 10° NNW visible
24 Aug ? 20:02:50 10° S 20:09:40 48° W 20:16:33 10° NNW visible
25 Aug ? 19:45:37 10° S 19:52:42 65° WSW 19:59:49 10° NNW visible
26 Aug ? 21:22:21 10° WSW 21:24:17 11° W 21:26:12 10° WNW visible
27 Aug ? 21:02:53 10° SW 21:07:07 17° W 21:11:24 10° NW visible
28 Aug ? 20:44:35 10° SW 20:50:01 23° W 20:55:29 10° NW visible
29 Aug ? 20:26:46 10° SSW 20:32:57 32° W 20:39:10 10° NW visible
30 Aug ? 20:09:14 10° S 20:15:56 43° W 20:22:39 10° NNW visible
